Home > Weather > Fort Nelson > Past weeks

Flag for Canada Past Weather in Fort Nelson, British Columbia, Canada — Yesterday and Last 2 Weeks

Now
79 °F

Broken clouds.


Feels Like: 79 °F
Forecast: 55 / 80 °F
Wind: 5 mph from West

Location: Fort Nelson

Current Time: Jun 25, 2016 at 4:08:18 PM

Latest Report: Jun 25, 2016 at 3:00 PM


Visibility: 30 mi

Pressure: 29.87 "Hg

Humidity: 32%

Dew Point: 46 °F

Location of Fort NelsonLocation

Past Weather in Fort Nelson — Graph

°F

Fort Nelson Temperature Yesterday

Maximum temperature yesterday: 79 °F (at 5:00 PM)
Minimum temperature yesterday: 50 °F (at 4:00 AM)
Average temperature yesterday: 65 °F

High & Low Weather Summary for the Past Weeks

 TemperatureHumidityPressure
High86 °F (Jun 20, 5:00 PM)100% (Jun 13, 12:00 AM)30.05 "Hg (Jun 13, 12:00 AM)
Low45 °F (Jun 11, 4:00 AM)18% (Jun 20, 6:00 PM)29.60 "Hg (Jun 12, 2:00 PM)
Average61 °F69%29.83 "Hg
* Reported Jun 10 3:00 PM — Jun 25 3:00 PM, Fort Nelson, Weather by CustomWeather, © 2016

Note: Actual official high and low records may vary slightly from our data, if they occured in-between our weather recording intervals... More about our weather records

Advertising

Fort Nelson Weather History for the Previous 24 Hours

Scroll right to see more
 ConditionsComfort  
Time TempWeatherWind HumidityBarometerVisibility
3:00 PM
Sat, Jun 25
79 °FBroken clouds.5 mph32%29.87 "Hg30 mi
2:00 PM79 °FBroken clouds.7 mph32%29.88 "Hg30 mi
1:00 PM77 °FBroken clouds.9 mph36%29.89 "Hg30 mi
12:00 PM73 °FBroken clouds.9 mph44%29.90 "Hg30 mi
11:00 AM73 °FScattered clouds.12 mph41%29.90 "Hg30 mi
10:00 AM72 °FScattered clouds.12 mph44%29.89 "Hg30 mi
9:00 AM66 °FPartly sunny.6 mph64%29.89 "Hg30 mi
8:00 AM64 °FBroken clouds.3 mph73%29.89 "Hg30 mi
7:00 AM61 °FScattered clouds.2 mph77%29.88 "Hg30 mi
6:00 AM57 °FBroken clouds.8 mph82%29.87 "Hg30 mi
5:00 AM57 °FBroken clouds.6 mph82%29.85 "Hg30 mi
4:00 AM55 °FPassing clouds.3 mph88%29.83 "Hg30 mi
3:00 AM57 °FPassing clouds.5 mph82%29.82 "Hg20 mi
2:00 AM57 °FPassing clouds.5 mph88%29.81 "Hg15 mi
1:00 AM57 °FPassing clouds.No wind82%29.80 "Hg15 mi
12:00 AM63 °FPassing clouds.5 mph73%29.79 "Hg20 mi
11:00 PM
Fri, Jun 24
63 °FScattered clouds.5 mph73%29.79 "Hg15 mi
10:00 PM68 °FBroken clouds.9 mph56%29.79 "Hg20 mi
9:00 PM70 °FBroken clouds.8 mph53%29.78 "Hg20 mi
8:00 PM72 °FScattered showers. Partly sunny.5 mph57%29.76 "Hg20 mi
7:00 PM75 °FScattered showers. Broken clouds.3 mph44%29.76 "Hg15 mi
6:00 PM79 °FScattered showers. Scattered clouds.2 mph32%29.75 "Hg15 mi
5:00 PM79 °FScattered clouds.5 mph30%29.75 "Hg20 mi
4:00 PM77 °FScattered clouds.3 mph32%29.76 "Hg20 mi
Weather by CustomWeather, © 2016

See weather overviewHow to use our weather pages